Location: Gauravaram
(16.6995°N, 80.5417°E)
Time: 19:59:48
(UTC+00:00)

SAR-Lupe-2 - Pass Details

Date: 03 August 2024
Orbit: 481 x 482 km, 98.1° (Epoch: 05 September)

Event Time Altitude Azimuth Distance (km) Brightness Sun altitude
Rises 13:56:22 0° 177° (S) 2,529 7.0 -11.5°
Reaches altitude 10° 13:58:27 10° 183° (S) 1,651 6.1 -11.9°
Maximum altitude 14:01:54 50° 259° (WSW) 621 4.5 -12.7°
Drops below altitude 10° 14:05:21 10° 335° (NNW) 1,654 7.0 -13.4°
Sets 14:07:27 0° 341° (NNW) 2,534 7.9 -13.9°
